Location: Camoruquito
(9.9001°N, 67.3564°W)
Time: 14:40:33
(UTC+00:00)

COSMO-SKYMED 1 - Pass Details

Date: 14 April 2024
Orbit: 621 x 623 km, 97.9° (Epoch: 28 May)

Event Time Altitude Azimuth Distance (km) Brightness Sun altitude
Rises 09:39:24 0° 154° (SSE) 2,894 6.2 -10.5°
Reaches altitude 10° 09:41:42 10° 147° (SSE) 1,988 5.5 -10.0°
Maximum altitude 09:45:44 40° 77° (ENE) 924 4.2 -9.0°
Drops below altitude 10° 09:49:47 10° 8° (N) 1,987 5.4 -8.0°
Sets 09:52:04 0° 1° (N) 2,893 6.2 -7.4°
